GFSNGP_700_spd_003.txt.gz
Wind_Speed
9 11 11 13 14 14 16 17 17 17 18 20 17 13 14 14 16 23 21 29 39 42 43 44 43 40 37 35 35 35 37 42 45 47 49 46 43 43 41 40 36 32 30 27
14 8 9 14 17 18 15 11 16 16 17 12 11 16 17 21 25 22 40 39 38 41 45 41 34 33 28 33 29 37 41 40 43 43 42 41 41 37 34 31 28 29 28 27
6 13 20 11 2 2 8 12 11 13 15 17 15 17 23 27 24 37 40 41 42 45 37 31 30 31 28 32 34 39 34 33 32 37 39 38 37 29 27 27 28 27 26 26
8 11 3 2 9 15 13 11 10 12 13 11 17 22 29 33 33 39 42 44 41 35 34 33 32 33 33 37 33 34 34 37 34 36 39 32 28 25 29 27 29 28 29 31
2 7 18 11 2 3 10 14 14 11 13 21 28 29 24 28 39 43 41 37 33 30 32 34 36 35 34 37 37 35 32 29 34 39 29 27 28 26 28 28 29 31 33 36
5 4 4 3 8 12 13 15 15 19 23 39 33 31 26 39 42 41 34 26 27 29 30 30 34 38 34 34 36 36 30 34 31 28 28 26 26 28 28 28 30 37 34 38
9 9 11 11 20 17 7 12 20 29 35 31 33 28 37 39 35 23 23 25 28 29 31 36 47 42 35 35 38 32 32 36 30 27 27 24 26 26 29 29 33 34 37 37
5 7 8 7 9 18 19 21 30 34 31 33 25 36 30 29 24 23 26 29 30 32 37 46 38 35 35 34 35 30 29 37 34 23 20 23 23 26 29 27 31 35 38 39
9 13 20 25 28 30 25 28 29 29 27 29 29 24 23 22 24 27 29 31 33 34 37 35 34 34 35 35 34 34 38 35 29 19 22 21 26 25 25 27 33 35 38 37
23 21 22 25 21 22 29 30 28 35 27 21 21 23 22 25 28 30 31 35 33 34 34 36 37 35 34 38 33 31 31 31 22 24 26 29 25 22 25 30 30 35 37 35
28 27 25 22 21 26 29 26 32 32 27 30 28 23 27 30 31 32 35 33 36 35 37 38 37 36 34 38 34 29 31 27 24 24 27 28 26 26 26 27 29 33 34 33
26 25 26 25 30 26 21 27 27 28 29 28 25 28 30 31 32 33 35 37 34 35 37 37 37 41 38 36 31 28 26 22 21 23 23 23 24 25 26 24 27 30 30 31
24 28 30 34 27 18 23 24 28 29 28 24 26 28 32 35 35 40 35 34 36 39 40 42 41 39 37 34 28 24 20 19 20 20 21 21 23 24 23 26 29 30 29 29
25 29 26 20 18 25 29 28 29 23 25 23 28 37 37 38 42 41 41 43 43 43 41 39 38 37 36 30 25 18 18 20 17 18 18 21 23 23 22 23 26 29 30 29
23 19 14 17 22 25 27 28 29 28 28 38 40 40 41 41 41 41 41 42 43 41 37 36 35 34 31 26 19 18 19 19 18 17 18 20 21 21 20 22 25 26 27 29
22 22 18 18 23 26 28 28 32 36 39 39 39 40 39 39 40 39 39 40 38 36 34 34 32 31 26 21 18 19 20 18 18 17 18 19 20 20 19 21 23 24 25 26
22 20 20 22 26 28 29 31 35 38 38 39 38 38 38 39 38 38 39 40 38 36 35 32 31 28 23 19 18 18 19 19 18 17 18 19 19 19 18 19 22 24 24 24
19 20 22 24 27 28 32 35 38 37 37 37 37 38 39 38 38 40 40 40 38 34 33 30 28 24 22 19 18 18 18 19 17 16 17 18 18 18 19 20 22 23 24 25
20 22 24 26 28 31 34 36 37 36 36 36 36 37 37 36 38 40 40 39 35 32 27 27 25 22 20 18 18 18 17 17 16 15 16 17 17 18 19 20 22 23 24 24
21 24 26 28 31 35 35 35 35 37 35 35 34 36 37 34 38 40 40 37 31 28 26 25 22 20 18 18 18 18 16 16 16 15 15 15 16 17 19 20 21 22 22 23
24 27 29 32 32 33 34 34 37 35 34 31 31 35 36 36 37 39 39 33 29 27 23 24 21 19 18 18 18 17 16 15 15 14 13 14 15 17 19 20 21 21 22 22
29 31 31 31 33 35 35 36 35 33 32 29 30 34 36 36 37 39 35 31 27 24 23 22 18 17 18 17 19 18 17 15 14 13 13 14 15 17 19 20 21 21 22 22
30 30 32 34 35 36 36 33 32 32 31 30 32 35 36 35 35 38 33 27 25 21 19 17 17 18 18 18 19 19 16 15 13 13 14 15 16 18 18 20 21 21 21 22
30 32 34 34 35 34 33 30 31 31 32 33 35 36 35 34 30 32 30 25 22 19 16 15 17 18 18 19 19 19 16 14 14 14 16 16 17 18 18 19 19 20 20 22
31 31 31 32 32 30 29 29 32 35 35 35 33 32 30 30 32 31 28 23 21 20 18 17 17 18 19 21 21 19 18 17 16 16 17 17 18 18 18 18 19 19 20 22
29 30 30 30 29 27 29 32 35 36 35 35 32 29 28 28 29 29 27 23 22 22 23 23 22 22 21 21 22 22 20 19 18 18 19 19 19 19 19 19 19 20 21 23
28 29 29 28 27 30 33 36 38 36 35 34 31 27 28 28 27 27 26 24 23 22 23 25 25 24 25 27 26 24 22 21 21 21 21 20 20 19 20 20 21 21 22 24

GFSNGP_700_spd_006.txt.gz
Wind_Speed
4 7 8 11 13 13 15 16 18 20 17 15 11 9 10 13 19 22 35 38 34 42 45 47 45 37 36 36 33 34 33 34 49 51 48 52 45 44 47 44 41 38 35 33
9 2 7 14 17 16 16 16 14 14 16 11 10 14 20 27 30 34 37 36 39 45 45 38 35 31 35 34 31 40 40 51 50 43 34 40 37 41 42 38 38 37 36 36
2 12 15 3 4 2 4 7 10 13 14 16 14 18 22 34 35 38 35 37 43 42 28 27 31 35 30 32 37 37 43 46 47 41 42 36 46 47 39 32 37 39 36 36
6 8 2 1 13 13 14 11 9 11 12 7 18 28 30 33 33 29 38 41 37 25 27 27 39 31 37 44 44 35 35 40 48 50 45 38 45 37 32 32 38 36 37 39
2 4 14 9 6 5 7 15 12 13 17 23 25 28 28 27 32 36 40 34 26 26 29 38 31 35 40 46 36 32 35 42 44 47 24 41 38 36 32 35 36 38 39 40
6 2 4 3 7 14 19 16 14 19 21 26 33 33 26 32 31 38 36 27 24 29 32 31 35 39 43 38 37 36 37 42 43 36 29 44 38 32 30 35 37 39 41 33
8 7 9 10 13 13 8 10 17 26 30 30 34 32 31 32 32 31 21 23 28 31 32 37 40 43 39 40 37 37 43 43 38 32 35 42 31 28 35 34 39 37 33 35
5 6 9 7 9 12 15 21 32 29 28 33 31 33 30 27 31 21 25 28 29 32 35 40 41 37 37 42 46 43 37 35 32 31 35 34 26 32 34 36 34 31 33 37
11 9 10 20 20 28 32 29 33 29 31 30 31 30 27 29 21 25 27 30 33 35 41 37 33 35 37 47 49 42 38 34 29 29 29 26 29 30 30 32 29 30 32 37
19 25 21 23 22 28 28 28 31 34 28 25 25 27 25 23 24 30 34 41 36 42 35 35 38 37 44 47 42 39 37 32 30 27 25 25 25 27 29 28 27 28 32 36
22 24 22 24 31 31 31 26 32 26 24 23 27 22 21 27 33 35 38 37 43 37 36 41 42 40 43 43 38 36 33 30 27 23 21 22 22 24 26 26 26 28 30 33
26 22 26 27 30 32 30 36 27 23 25 26 20 27 30 33 38 40 40 42 41 40 42 43 45 44 42 40 36 34 32 28 22 21 22 19 20 22 25 25 24 26 27 29
26 31 33 27 26 31 28 23 23 27 27 23 27 28 37 40 40 41 41 40 40 41 42 42 42 40 37 37 36 32 28 23 21 21 20 19 20 22 24 24 24 25 26 27
30 29 27 28 26 22 19 22 26 24 26 26 34 37 39 39 41 41 40 40 41 40 41 41 39 37 35 35 34 30 24 21 22 20 19 19 20 22 23 23 23 25 27 27
31 22 24 24 19 21 23 23 24 25 30 35 37 37 39 40 40 39 40 40 40 41 41 41 38 35 33 32 28 25 24 20 20 19 19 19 20 21 21 21 21 23 25 27
25 25 21 20 18 19 22 25 28 32 34 36 36 38 38 39 38 39 39 38 40 41 39 38 35 32 30 29 25 22 22 21 20 20 19 18 19 20 20 20 21 23 25 26
24 22 19 20 17 22 25 29 31 33 35 35 37 38 38 37 36 37 36 36 40 39 39 36 31 28 28 24 22 20 20 21 20 19 18 18 18 19 19 20 21 23 25 25
22 22 19 17 22 27 29 31 32 35 35 36 37 39 36 34 34 35 35 37 38 39 34 29 28 27 26 22 20 20 20 20 20 18 17 17 17 17 18 19 21 23 24 25
18 16 19 24 27 30 31 31 33 34 35 36 38 36 34 32 32 34 35 37 38 39 31 29 27 25 24 21 19 20 20 20 19 18 17 16 15 15 16 18 20 22 23 23
14 20 24 27 29 30 31 31 34 36 35 37 36 34 33 31 32 34 35 36 37 37 32 28 24 23 22 20 18 20 21 20 18 17 16 15 13 14 16 18 19 21 22 23
20 23 26 28 29 29 30 33 35 35 36 34 33 33 33 32 34 36 35 35 34 34 30 27 24 22 20 17 17 17 20 20 18 17 15 13 13 14 16 18 19 21 21 22
24 28 29 29 29 31 32 34 34 35 33 31 31 32 33 34 34 35 31 31 33 32 30 27 22 19 18 18 19 19 20 21 19 17 15 14 14 15 16 17 18 20 20 20
28 29 28 28 30 33 33 33 33 32 31 29 30 32 34 34 32 31 30 28 30 30 27 25 22 18 18 18 18 19 20 20 19 17 16 16 16 16 17 17 18 19 20 20
26 26 28 30 31 33 33 32 31 29 30 33 35 35 35 35 32 29 29 29 29 28 26 24 22 22 20 19 19 19 20 21 20 19 19 18 18 18 18 17 17 19 19 20
26 28 29 31 30 31 31 28 29 29 31 35 37 35 35 34 32 30 29 29 28 28 26 25 24 24 26 25 23 23 22 21 21 21 21 21 21 20 19 18 18 19 20 20
27 29 30 30 29 28 28 28 31 33 36 38 38 35 35 33 30 30 30 28 28 28 26 24 24 24 25 28 28 26 26 27 24 23 23 23 23 22 21 20 20 20 21 21
27 28 29 29 30 31 33 36 36 36 37 37 39 34 34 31 29 29 28 28 28 28 27 26 26 26 26 26 26 28 26 26 25 25 25 24 24 23 23 22 22 22 22 23

GFSNGP_700_spd_009.txt.gz
Wind_Speed
4 6 7 8 10 10 12 14 15 18 13 17 14 10 10 15 19 22 24 34 39 41 40 45 46 43 38 41 39 40 40 42 44 44 43 45 52 56 38 38 40 40 38 41
3 5 6 13 10 9 12 14 15 16 12 8 15 16 21 22 26 27 34 44 39 36 44 45 40 38 37 45 45 45 45 47 40 42 42 49 53 42 27 30 36 38 37 46
3 5 7 5 3 3 6 9 8 11 13 15 17 24 25 22 27 36 44 41 39 42 43 36 35 37 44 44 46 49 51 42 37 38 44 48 57 27 34 34 35 33 43 42
3 2 1 6 9 12 15 13 13 13 13 20 24 27 25 28 34 40 38 38 39 34 28 30 35 43 46 47 50 50 43 42 41 42 43 44 33 31 31 32 32 38 39 38
3 3 10 8 9 12 10 12 16 22 26 26 21 21 30 37 38 35 33 35 32 29 31 38 44 44 45 48 47 43 44 45 43 41 42 39 38 19 31 36 37 37 38 37
7 4 6 8 7 13 15 16 19 18 20 22 27 32 36 33 34 36 35 37 33 34 37 42 42 44 46 45 44 44 47 50 45 39 36 34 33 36 33 35 36 38 36 32
12 8 8 10 15 13 10 15 19 22 24 30 36 31 30 31 32 33 33 31 31 34 39 44 45 45 45 42 44 47 48 47 41 36 33 28 28 29 30 32 35 34 30 30
9 8 9 7 13 16 19 26 25 28 34 32 31 30 30 28 32 31 28 30 33 39 44 44 43 45 42 43 46 47 43 41 38 34 31 29 27 28 29 31 29 28 27 27
14 11 19 21 19 26 29 29 29 32 31 33 35 34 26 30 29 27 30 34 39 42 43 43 43 41 41 43 44 42 38 38 36 32 29 26 24 23 25 25 26 26 26 27
18 21 19 17 27 29 32 33 32 28 35 29 30 25 26 28 29 32 35 37 40 41 42 41 40 38 38 41 42 37 33 33 32 30 26 21 20 22 22 22 24 24 24 26
31 25 22 26 29 33 34 34 30 32 30 34 25 23 28 30 32 34 37 38 40 41 40 40 40 38 39 40 39 35 31 31 28 26 22 21 20 19 20 22 23 23 23 25
34 33 32 31 30 29 30 31 35 35 29 21 25 28 31 32 33 37 39 40 42 40 39 40 40 39 40 39 37 35 31 29 25 23 21 20 18 18 20 21 22 20 21 22
29 29 30 31 31 32 30 33 32 21 22 26 28 29 30 33 37 38 39 40 39 38 39 39 40 40 39 38 36 33 30 26 22 21 21 19 18 19 19 19 20 19 20 22
28 30 31 31 29 30 31 22 18 23 26 28 29 29 33 37 37 37 39 38 37 38 37 39 39 39 38 36 32 29 27 24 19 20 20 18 18 18 19 19 19 19 21 24
31 32 30 32 29 30 21 22 21 24 26 28 31 33 36 36 37 39 37 36 35 35 36 38 38 38 34 30 28 26 22 21 18 17 18 18 17 18 18 18 19 20 22 23
28 28 34 29 28 23 23 20 23 26 29 32 33 34 35 37 38 38 35 33 34 34 35 38 38 32 29 28 25 22 20 18 18 18 18 18 17 17 16 16 17 19 21 22
26 31 29 27 21 20 19 22 26 30 32 33 34 35 37 38 39 36 32 31 31 33 34 38 35 29 27 24 22 19 18 17 19 18 18 18 17 16 15 14 16 18 20 21
31 29 22 17 14 16 21 27 30 31 32 32 35 37 38 38 37 35 32 32 31 34 35 35 33 27 24 21 20 18 16 17 19 19 19 17 17 15 13 13 15 17 19 21
21 13 12 12 15 22 27 30 31 30 31 34 37 37 37 35 34 34 33 34 33 35 33 32 31 26 23 21 18 16 15 17 19 19 17 16 15 14 13 13 15 17 18 20
12 11 11 17 24 28 28 28 28 30 32 35 35 35 34 33 33 34 34 34 33 33 31 31 29 26 23 20 17 15 16 17 19 19 17 16 15 14 13 14 15 16 17 19
10 14 22 26 27 27 26 27 29 31 32 33 33 31 31 32 33 35 34 33 31 29 28 29 27 24 22 18 15 15 15 16 18 18 17 16 15 14 15 15 16 16 17 18
18 21 25 27 27 25 26 27 29 31 32 31 29 27 28 30 32 33 33 32 29 28 28 27 26 23 21 18 17 16 15 16 17 18 18 17 16 16 16 16 16 17 16 17
22 25 27 26 26 26 27 28 30 32 31 28 28 28 31 33 34 34 33 31 29 27 28 26 26 23 21 20 20 19 19 19 18 18 19 19 18 18 18 18 18 18 17 17
27 26 25 25 27 29 29 29 31 30 29 29 31 32 34 34 35 34 33 31 29 29 28 26 26 24 22 21 20 23 25 24 22 21 20 21 20 20 20 20 20 20 18 18
24 24 26 28 29 29 31 31 30 29 30 33 33 34 34 35 37 33 32 30 29 29 27 26 25 24 24 24 23 23 24 25 26 25 26 25 22 23 22 22 22 22 21 20
24 26 27 29 30 31 29 29 31 32 35 33 34 34 34 35 33 31 29 28 28 27 27 26 26 26 26 26 27 27 26 25 25 26 26 26 25 23 23 23 23 23 23 22
26 27 30 30 30 30 32 35 37 36 33 33 35 33 32 33 31 30 28 27 27 26 25 25 27 28 29 29 30 30 30 30 30 28 27 28 29 25 23 24 24 24 24 24

GFSNGP_700_spd_012.txt.gz
Wind_Speed
8 9 10 11 10 12 14 14 13 16 17 19 24 20 18 20 20 22 24 26 29 37 42 44 44 48 44 42 42 43 44 45 49 50 40 35 39 43 48 46 40 26 30 35
10 10 9 10 12 12 13 17 20 18 15 16 19 20 21 21 22 23 27 31 36 39 41 43 46 43 41 41 42 44 46 48 44 40 38 38 41 42 41 29 42 24 30 33
6 11 9 10 12 7 7 11 14 16 20 22 21 21 20 21 24 26 30 36 38 41 42 42 40 40 40 42 42 45 48 44 38 37 39 40 39 36 32 33 23 26 29 30
5 7 1 7 10 9 10 17 21 23 22 19 19 21 24 26 29 32 37 36 39 39 40 38 38 38 41 43 45 47 44 41 37 37 39 40 38 34 31 23 31 27 28 34
4 8 10 10 16 15 10 13 17 19 21 23 26 27 25 29 34 38 34 35 37 39 37 37 38 40 44 46 47 44 42 41 41 42 40 38 37 32 29 29 28 29 31 37
9 5 6 7 12 13 12 19 11 11 18 20 23 26 29 35 38 32 33 33 35 35 36 37 39 43 45 46 43 42 41 42 43 42 39 36 34 31 30 28 27 30 34 34
18 11 10 16 15 15 10 12 14 18 17 20 24 29 36 34 33 33 36 35 34 34 35 39 43 44 44 43 41 40 40 41 39 38 37 35 32 30 27 26 27 28 30 31
13 10 12 15 16 19 19 23 23 22 23 25 28 28 32 32 33 32 31 31 32 34 37 41 42 42 41 41 41 40 38 37 37 35 34 31 29 26 23 22 23 25 28 27
17 12 17 21 25 25 25 25 27 26 28 28 29 30 29 32 32 30 29 31 32 36 39 39 40 40 40 41 41 40 37 36 35 33 30 27 23 21 22 21 22 24 25 23
26 29 27 24 27 26 26 28 27 28 29 34 29 32 35 30 27 27 29 31 35 37 38 40 39 39 40 40 39 37 36 34 33 31 26 23 21 21 20 20 21 23 22 20
31 31 31 29 27 24 29 32 32 30 34 27 37 30 25 25 26 28 31 35 36 37 40 40 38 39 40 40 36 36 35 32 30 29 25 21 20 20 19 19 21 22 21 20
34 29 32 34 35 36 30 31 31 32 32 33 28 24 23 25 28 31 34 36 37 39 40 38 37 37 40 38 38 37 31 28 28 26 23 21 20 20 19 19 20 20 20 20
28 28 29 30 29 29 31 32 33 32 33 25 22 22 25 29 31 33 35 37 39 40 38 36 35 36 38 38 35 31 28 26 26 22 21 20 20 19 17 18 19 19 19 21
31 32 32 31 30 31 31 33 34 29 23 20 23 26 29 32 34 35 36 38 39 39 35 33 34 35 37 37 32 30 27 25 21 18 19 20 20 19 17 16 16 16 17 19
29 29 28 30 33 36 36 37 25 18 17 23 26 29 32 34 34 35 37 39 39 36 34 33 34 35 36 34 30 27 24 22 19 17 17 18 19 18 16 16 16 15 16 18
28 30 29 30 33 36 34 17 13 14 20 25 29 32 33 33 35 37 39 39 38 36 33 33 34 35 34 32 28 24 23 20 17 17 18 18 18 16 16 16 15 15 16 17
30 30 34 38 37 29 12 11 12 19 26 30 32 32 32 34 37 38 37 36 35 35 33 34 34 33 32 31 26 22 22 19 17 17 18 18 17 16 16 15 14 14 15 16
27 27 32 33 20 9 7 13 20 27 30 30 30 32 34 36 37 37 36 34 33 33 34 34 33 30 30 29 26 22 21 18 17 17 18 18 17 16 16 15 14 14 15 15
25 30 23 8 8 7 13 21 26 29 29 29 30 32 34 35 36 36 34 32 32 33 33 32 30 28 29 28 25 21 18 17 17 17 19 19 17 17 16 15 15 15 15 15
11 11 12 6 10 18 23 28 31 28 27 28 30 31 33 33 33 33 32 34 34 35 33 32 29 28 28 26 23 19 17 16 16 17 19 19 17 16 16 15 15 16 16 15
6 5 9 15 20 25 29 29 26 26 27 27 29 31 32 31 31 32 33 34 33 33 32 30 28 27 27 25 21 17 16 16 16 17 18 19 18 17 17 17 17 17 17 17
11 14 16 21 26 27 26 25 26 27 27 28 29 30 31 31 32 34 33 34 34 32 31 28 28 26 25 24 21 18 17 18 18 19 19 19 19 19 18 19 19 19 18 18
16 19 24 28 28 26 25 25 28 28 30 31 30 30 32 35 35 35 36 35 35 32 30 27 26 25 25 24 22 21 20 20 21 23 23 22 21 20 21 21 21 21 21 20
22 27 30 27 26 26 27 28 29 31 31 30 31 33 36 36 35 34 36 36 34 31 29 28 26 25 24 24 23 23 23 23 24 24 24 25 25 26 27 25 23 23 23 23
28 26 26 26 27 29 30 31 33 33 33 34 35 37 37 36 37 36 34 34 33 31 29 27 26 25 24 24 25 26 27 27 26 27 27 27 28 29 28 27 27 25 24 25
25 25 26 27 29 31 33 35 37 38 38 38 38 35 34 36 36 35 34 33 32 29 27 25 24 24 24 26 27 29 31 31 31 31 31 31 31 30 30 29 31 29 25 25
25 26 28 30 31 33 36 38 40 42 41 39 39 37 37 39 36 34 33 32 30 27 25 24 24 24 26 29 31 32 33 33 32 31 30 31 31 31 30 28 29 31 28 26

GFSNGP_700_spd_015.txt.gz
Wind_Speed
9 8 8 10 12 15 17 17 14 16 18 17 21 24 26 25 25 25 24 25 27 33 36 38 39 40 40 42 44 45 45 44 46 46 46 46 45 42 39 36 34 26 30 23
11 12 13 15 16 17 19 20 23 23 26 23 22 24 25 26 24 24 25 28 32 36 38 39 38 38 40 43 43 44 46 47 47 45 43 43 44 40 37 34 31 33 23 25
7 12 12 14 20 20 16 17 17 21 19 19 20 22 23 24 25 26 28 31 34 38 40 38 37 39 41 41 42 45 48 48 47 46 45 44 42 39 36 33 28 20 26 25
6 6 1 14 14 15 18 19 18 20 22 24 22 18 22 25 26 28 30 33 37 40 37 38 38 39 40 41 44 47 48 47 46 45 44 42 40 37 35 33 30 28 27 27
6 12 13 13 16 19 20 20 18 19 19 19 21 23 26 26 28 30 34 38 39 37 35 35 37 38 40 43 46 47 46 45 44 43 43 40 37 35 34 31 29 26 26 29
11 6 6 9 11 14 19 25 19 13 13 18 20 24 21 26 30 33 36 36 35 31 33 35 37 39 43 45 46 45 43 42 41 42 41 38 36 34 33 30 25 25 28 28
22 14 11 17 19 17 15 17 9 17 18 20 20 21 26 30 32 31 32 31 30 31 33 36 39 42 43 44 43 42 41 41 40 39 38 36 35 33 29 25 22 23 25 26
18 14 15 20 20 20 17 17 24 23 22 21 20 24 27 31 32 30 30 27 28 32 35 37 40 42 42 42 41 40 40 39 37 37 36 35 33 29 25 23 24 24 24 26
19 17 19 18 18 21 24 27 27 26 25 25 26 28 31 33 27 24 24 26 30 33 35 38 40 41 42 41 38 39 39 37 38 37 34 32 30 26 23 24 23 22 23 25
28 29 28 28 29 32 33 33 27 26 29 31 31 27 30 28 20 21 24 29 31 34 36 37 39 40 41 39 37 38 39 37 35 33 30 29 27 24 23 23 22 21 22 23
30 28 30 31 31 32 32 30 28 32 31 29 28 29 29 20 20 23 27 30 33 36 37 38 41 41 39 37 36 37 38 35 33 31 28 28 25 23 22 21 21 20 21 22
33 26 28 29 29 30 32 34 35 31 31 31 31 31 19 18 21 26 30 33 35 35 37 40 41 39 36 35 36 37 38 33 32 29 26 24 23 22 21 21 20 20 20 21
31 28 31 32 32 31 31 28 29 30 30 31 31 16 14 19 25 29 33 34 34 36 39 40 39 37 35 35 35 37 36 32 29 26 23 22 23 21 21 21 20 19 19 20
31 30 31 29 29 28 28 29 30 30 32 33 17 12 19 25 31 33 33 32 35 37 38 38 37 35 36 36 36 35 35 31 28 25 22 21 21 21 21 20 18 17 18 18
29 29 31 29 31 31 32 32 33 37 33 19 13 16 24 30 31 30 31 34 36 37 37 37 36 35 35 35 35 33 33 29 26 25 22 21 21 21 21 20 18 17 16 17
33 35 34 32 32 33 35 37 37 27 16 11 16 24 29 30 28 30 32 34 36 37 36 34 33 34 34 33 31 30 31 29 25 24 21 21 21 21 21 19 17 16 15 16
31 32 31 32 33 32 37 39 22 5 6 16 21 28 28 27 28 30 33 35 36 35 33 33 35 35 33 30 29 30 29 28 25 22 20 21 21 21 20 18 17 16 15 16
26 28 29 28 33 32 27 13 1 10 17 22 27 26 26 27 28 31 34 34 34 33 34 35 35 34 32 29 28 29 28 28 24 21 20 20 20 20 19 18 17 16 16 17
24 22 25 31 30 24 5 10 15 20 24 26 24 25 26 27 31 34 35 34 33 35 34 35 35 33 31 28 28 28 26 25 22 20 20 20 20 20 21 19 18 17 17 18
21 25 24 18 3 11 16 20 22 25 25 24 24 27 28 31 33 35 35 35 33 36 36 36 35 32 29 28 28 27 25 23 20 20 21 20 21 21 21 20 19 18 18 19
5 8 10 13 14 16 20 24 27 25 25 26 29 30 31 33 32 34 35 36 34 36 37 37 34 31 29 29 27 25 23 22 22 22 22 22 22 22 23 22 21 21 20 21
12 13 14 16 19 24 29 30 28 27 27 29 31 32 34 33 33 35 36 36 36 35 36 36 34 31 29 28 26 25 23 22 22 24 25 26 26 26 25 24 23 22 22 23
16 17 20 23 26 30 28 26 27 29 30 31 33 34 34 37 37 39 39 36 35 36 36 35 34 32 30 28 26 25 23 23 24 25 26 28 29 28 28 27 27 27 27 25
16 20 25 28 27 27 27 27 30 31 33 35 35 36 38 40 41 40 39 36 37 37 35 34 34 32 29 27 25 24 24 25 26 28 29 30 31 31 31 32 33 32 31 29
25 25 26 28 29 30 31 33 34 35 36 38 39 40 42 42 42 40 39 39 38 37 35 34 33 31 27 26 25 25 25 28 30 32 33 34 33 33 34 34 33 33 32 30
26 27 27 28 30 32 34 37 40 42 44 46 46 45 43 41 42 44 44 41 38 36 34 33 31 30 27 25 26 27 29 29 31 32 32 32 32 32 32 33 32 33 33 32
25 27 30 32 34 37 40 43 45 47 46 46 45 41 40 41 39 37 36 36 35 34 32 31 30 30 27 26 27 29 30 30 32 34 34 34 33 31 30 30 30 31 32 30

GFSNGP_700_spd_018.txt.gz
Wind_Speed
13 9 10 11 12 14 17 17 16 19 21 16 16 17 18 22 27 29 28 27 26 26 28 36 38 35 34 37 40 41 42 45 47 48 49 48 48 47 44 40 36 33 29 27
15 14 14 16 17 19 21 23 25 25 26 19 18 19 21 23 26 28 28 27 27 28 35 34 33 33 35 38 40 42 44 46 47 49 49 48 47 45 44 39 35 32 27 24
8 14 16 17 24 24 24 26 23 25 20 19 18 18 19 19 21 25 27 28 30 33 34 34 33 35 36 38 39 41 44 45 47 47 47 46 45 43 41 37 34 32 29 26
7 8 2 19 18 17 20 18 22 25 21 20 21 19 18 19 21 25 27 27 31 34 34 33 35 35 36 38 40 42 44 46 46 46 45 45 42 40 37 35 33 30 28 26
6 11 18 16 17 20 22 21 22 25 21 20 20 20 21 20 20 24 26 30 31 32 32 33 33 34 37 38 41 43 45 45 45 44 45 42 40 38 36 35 32 28 26 25
11 6 5 11 13 15 18 29 28 23 19 15 21 25 20 17 19 23 28 31 33 30 31 31 33 35 37 40 42 43 45 44 43 43 43 41 40 37 34 33 30 25 25 24
23 18 15 21 23 21 14 23 13 12 15 24 24 24 22 21 22 24 30 34 28 28 29 31 34 36 39 41 42 44 44 41 40 42 41 39 38 35 32 30 27 26 25 23
12 11 13 17 20 20 17 17 20 23 27 29 26 25 26 26 28 28 33 28 23 25 29 33 35 39 40 41 42 43 41 38 39 40 39 36 35 32 30 27 26 26 24 23
14 14 19 24 26 27 27 24 28 30 30 29 28 29 28 27 34 32 27 22 21 26 30 34 37 39 40 41 42 41 39 37 38 39 36 34 32 30 28 26 24 24 23 22
26 26 25 25 27 28 30 31 30 31 31 30 29 30 30 34 32 30 21 18 23 27 32 35 37 38 40 42 41 40 38 36 37 38 35 33 31 28 26 25 24 23 21 21
30 29 29 26 27 27 29 29 30 29 31 31 31 32 33 33 36 22 16 19 25 30 34 35 36 39 40 41 40 38 36 36 36 36 34 31 28 27 25 23 23 22 20 21
30 24 27 28 27 29 30 31 30 30 31 33 29 32 32 31 13 13 15 21 26 32 33 34 37 38 39 39 38 37 36 35 35 34 32 29 28 26 24 23 22 21 20 19
31 29 31 31 29 28 29 30 30 29 28 28 28 32 33 21 10 12 21 24 29 30 32 35 36 37 37 35 35 35 35 34 32 32 29 27 26 24 24 23 23 21 20 19
27 29 32 28 30 31 31 31 29 27 26 30 33 34 28 10 12 17 23 26 27 29 32 34 36 34 31 33 35 35 33 31 30 30 28 26 25 23 23 24 22 21 21 19
32 33 34 34 34 35 33 31 28 30 35 34 35 27 9 12 16 21 23 25 27 29 31 34 33 30 32 34 35 34 31 29 30 29 28 25 23 23 23 23 23 21 19 19
33 32 32 32 32 31 29 30 29 27 34 27 16 7 14 17 19 21 24 25 27 30 31 32 32 32 33 34 33 32 30 29 29 29 28 24 22 22 23 23 21 20 18 18
30 28 29 30 29 29 28 30 29 31 33 15 10 15 18 19 21 24 26 26 28 30 32 33 33 34 34 36 34 32 29 29 29 28 26 23 21 22 22 22 21 20 18 18
28 29 28 26 25 26 29 28 26 16 8 13 16 17 18 21 24 25 27 28 29 31 33 34 34 33 34 36 34 31 29 28 27 27 25 21 21 22 22 21 21 20 19 19
24 24 24 21 20 22 22 14 10 19 22 21 21 21 22 24 26 26 29 30 29 32 34 34 35 35 35 34 32 30 29 27 26 25 23 21 21 22 22 21 21 20 20 19
15 16 12 10 8 9 15 21 23 24 24 24 24 24 25 26 28 30 31 31 31 35 36 35 35 37 37 34 32 29 28 26 26 24 23 23 23 23 24 24 24 23 22 21
8 11 14 16 19 22 23 24 26 27 26 25 25 26 28 28 29 31 32 36 34 38 37 36 35 37 37 34 32 30 28 27 26 25 24 24 25 27 28 28 29 28 26 24
13 15 16 17 18 20 22 25 25 24 24 25 27 29 31 32 33 34 36 38 40 40 40 37 36 38 36 34 33 29 27 26 25 24 24 25 26 28 30 31 32 31 30 28
16 15 16 19 23 26 28 28 28 28 29 29 30 32 35 37 39 41 43 43 43 41 40 38 38 38 36 34 32 29 26 25 24 24 24 25 28 30 32 32 34 34 34 34
16 19 21 21 22 24 24 25 27 29 32 34 36 39 42 45 46 44 44 43 42 42 43 42 39 37 36 33 31 28 26 25 25 25 27 28 29 30 32 33 33 33 35 34
19 20 22 24 25 27 29 31 33 35 38 41 43 45 46 46 46 44 40 39 40 39 37 35 34 32 32 31 29 29 27 26 26 27 28 28 29 31 32 33 33 33 32 33
22 24 25 28 30 33 35 38 41 43 44 45 45 45 44 42 40 40 40 39 37 35 33 32 31 31 30 29 28 28 28 26 26 27 28 29 31 33 35 36 35 33 32 31
25 26 27 30 33 37 40 42 44 45 46 47 48 46 45 43 41 39 37 36 34 32 32 30 28 30 30 28 27 28 29 27 26 27 29 30 33 36 38 38 37 34 31 28

GFSNGP_700_spd_021.txt.gz
Wind_Speed
15 12 10 11 13 16 19 20 17 22 22 18 18 17 14 14 19 22 26 29 28 27 28 32 31 37 37 32 30 32 34 36 40 42 44 46 46 46 46 45 42 40 36 32
15 16 16 17 17 20 21 24 27 28 27 19 16 16 16 16 17 20 24 28 29 29 31 30 35 36 32 29 32 33 35 38 41 43 44 45 45 44 44 42 40 38 35 31
8 15 17 16 25 26 26 27 27 29 24 22 20 18 16 18 17 17 19 26 28 29 31 31 34 30 30 31 31 33 36 39 41 43 44 44 43 42 41 40 38 36 33 30
6 7 3 15 18 18 19 18 19 24 23 22 22 21 20 17 17 18 18 22 24 28 29 32 31 28 30 30 32 34 37 39 41 44 44 43 41 41 40 39 36 33 30 27
5 9 16 16 16 22 25 24 22 22 23 23 22 20 16 19 21 19 17 21 24 28 31 33 30 27 27 30 33 36 38 40 43 44 44 41 39 40 38 37 33 30 27 25
10 5 5 6 14 19 22 25 22 16 15 16 14 18 22 24 21 19 18 21 25 27 33 38 27 25 28 31 34 37 38 41 43 43 41 38 39 38 36 35 31 29 26 24
17 13 10 13 18 21 12 16 12 13 12 16 23 27 28 24 20 19 19 22 27 30 33 27 23 25 29 33 36 37 40 42 42 40 37 37 37 35 34 32 30 27 25 25
8 7 8 6 8 10 15 24 24 19 22 25 27 27 25 22 22 21 24 25 31 32 24 22 23 26 31 34 35 38 41 41 41 38 36 35 35 33 31 29 26 24 24 24
11 12 19 24 24 21 22 23 23 26 26 26 28 29 27 26 26 27 28 32 33 28 22 19 23 27 32 33 37 39 40 41 39 35 34 34 33 31 29 27 24 24 23 23
24 23 22 23 24 23 23 24 24 26 26 27 28 30 30 32 32 30 33 33 29 23 15 21 25 27 30 35 38 39 40 38 35 33 31 31 31 29 27 25 24 23 23 22
26 24 22 20 22 24 25 26 26 27 28 29 29 29 30 34 35 32 33 26 26 11 19 20 23 27 32 35 37 38 35 34 33 32 30 29 29 27 25 24 22 22 22 22
24 23 26 25 25 27 28 29 28 29 30 30 30 29 28 30 33 33 37 22 13 17 16 20 24 29 31 34 36 34 33 33 33 31 28 28 27 25 23 22 21 22 21 21
27 27 27 25 25 27 29 29 30 32 32 30 27 27 28 34 35 36 20 12 11 13 17 22 25 28 31 33 34 33 33 32 31 29 27 27 27 25 23 21 21 21 22 20
25 27 28 28 30 31 32 31 31 31 30 27 27 30 33 36 35 20 9 8 11 16 21 23 25 28 32 33 31 30 31 31 30 28 27 27 26 24 22 21 20 21 23 21
28 30 34 34 33 33 33 32 30 27 27 29 28 35 36 21 7 9 10 12 15 19 22 24 27 29 31 31 29 29 31 29 28 27 26 27 26 24 21 20 21 21 21 20
32 30 29 29 29 29 29 28 25 23 26 32 26 16 9 11 13 13 13 16 19 21 23 26 28 30 29 29 30 31 31 29 27 26 27 27 26 23 19 19 19 20 19 19
27 25 25 28 30 30 27 26 26 24 24 15 12 11 14 15 13 15 18 20 20 22 26 29 30 30 30 30 30 32 32 30 28 27 27 26 24 21 18 19 19 19 18 18
26 28 28 24 21 22 20 19 17 14 9 16 21 22 20 17 17 19 21 22 23 26 27 32 31 32 32 32 31 32 32 31 30 28 26 25 23 20 20 20 19 19 18 18
20 19 17 13 11 9 8 9 13 22 24 23 22 19 17 18 20 22 24 25 27 29 30 33 33 34 34 34 34 34 33 32 30 28 27 25 23 20 21 22 22 21 22 21
5 2 5 7 10 16 20 20 19 19 19 19 19 19 20 22 24 26 28 30 30 31 35 36 38 37 36 35 34 35 35 32 30 28 26 25 23 22 22 22 24 25 25 25
8 9 10 11 12 13 14 16 18 18 18 19 19 21 23 24 26 29 32 35 33 36 39 39 39 38 36 36 37 37 35 32 29 27 25 24 22 22 23 24 25 27 28 29
8 11 12 13 16 18 19 19 19 20 21 22 24 27 29 30 33 36 38 40 41 42 41 40 38 37 38 39 39 38 34 31 28 26 24 22 21 21 23 24 26 27 28 29
10 11 13 15 16 18 19 20 22 24 26 28 31 34 37 39 42 44 44 43 42 41 40 38 38 39 37 34 33 31 29 28 26 26 24 23 22 24 24 24 25 26 27 28
13 15 16 17 19 20 22 23 26 29 32 35 38 40 42 43 44 44 44 44 42 40 39 38 38 35 34 32 30 29 28 26 26 27 26 24 22 24 24 24 25 26 28 30
17 18 19 20 22 24 27 30 33 36 38 40 41 42 43 43 44 44 44 43 41 39 38 36 34 32 31 27 29 29 27 26 26 26 28 26 23 24 25 26 27 28 30 32
18 20 22 24 27 30 34 38 41 43 46 48 48 48 47 47 47 46 43 41 39 37 36 34 33 32 28 23 27 30 28 27 26 26 27 26 24 25 27 28 28 30 33 34
21 22 25 28 32 36 40 44 46 48 48 49 50 51 52 52 51 49 47 44 40 37 34 32 28 29 28 24 25 28 29 28 27 26 27 26 24 25 27 29 31 33 33 34

GFSNGP_700_spd_024.txt.gz
Wind_Speed
18 16 14 12 11 17 21 18 13 16 16 14 14 19 18 19 17 19 23 27 30 33 35 34 33 35 39 36 36 34 29 29 31 34 37 39 41 43 43 42 41 41 41 39
18 18 18 19 18 18 19 20 24 24 26 21 21 18 19 20 19 19 21 25 27 31 34 33 34 36 37 32 36 32 30 31 32 35 37 39 41 42 41 41 41 40 38 36
7 14 16 16 24 25 26 26 26 23 22 21 26 21 20 21 20 19 19 21 25 27 31 33 35 35 36 36 35 31 30 30 33 36 37 40 41 41 40 40 39 37 35 32
6 3 3 11 16 15 17 17 19 20 20 25 24 22 20 20 18 15 19 22 24 27 31 33 34 36 38 36 35 28 29 30 33 36 38 40 42 41 39 38 37 35 33 29
5 7 13 16 15 16 16 16 17 20 20 21 21 19 21 16 18 22 23 22 23 26 29 30 35 38 35 37 28 26 28 32 34 37 39 41 41 39 37 36 35 33 32 28
7 4 4 5 9 15 15 12 7 7 11 13 12 15 12 23 28 26 25 23 23 25 27 32 38 37 36 29 23 26 30 32 35 38 40 41 40 37 34 34 33 31 30 26
15 10 8 12 13 12 4 4 12 20 20 18 20 19 25 27 24 23 23 24 22 23 28 33 41 42 27 21 24 27 30 33 37 38 40 40 37 34 32 32 31 30 27 24
7 6 6 2 7 9 12 21 21 20 17 19 21 24 25 26 27 26 24 25 28 30 32 35 41 34 20 22 24 26 30 36 37 39 39 36 34 32 32 30 29 27 25 23
7 6 14 19 16 17 21 23 23 24 24 26 28 28 29 29 30 32 33 34 38 39 35 38 26 14 17 24 23 27 33 35 37 37 35 34 33 31 30 30 26 25 23 22
17 16 15 19 19 20 22 23 24 25 27 29 30 31 32 33 34 35 36 37 38 41 43 36 26 19 19 20 24 30 32 35 36 35 34 34 33 30 28 27 25 23 21 21
20 17 18 19 23 24 24 26 27 28 29 29 30 30 31 32 32 32 33 39 36 35 25 20 20 17 15 21 26 29 33 34 34 33 34 33 30 28 27 25 24 22 20 20
17 20 23 24 24 26 25 26 27 29 29 29 29 30 31 32 31 33 35 36 40 30 12 11 12 14 18 23 27 30 32 33 32 32 33 31 29 28 26 24 23 20 19 20
24 24 24 24 25 26 28 29 32 33 33 33 34 33 31 30 31 37 37 36 22 12 11 10 14 17 21 26 28 30 32 31 31 33 32 30 28 27 25 25 22 20 20 20
26 24 25 25 26 29 32 32 32 32 31 30 28 27 29 31 29 34 26 14 9 9 10 13 17 21 24 27 29 30 31 31 31 32 32 30 28 27 26 25 23 20 18 19
27 27 27 31 31 28 28 28 28 30 30 26 23 24 25 23 15 11 13 13 14 14 14 18 21 24 26 28 29 30 32 32 32 32 31 29 28 27 26 24 23 20 19 19
28 29 26 25 24 25 27 29 26 21 23 20 17 15 15 14 19 20 20 18 14 15 19 22 24 26 27 30 31 33 34 33 33 32 31 29 28 27 25 24 23 21 19 18
21 21 22 24 25 22 19 17 15 13 10 9 11 13 17 18 18 16 15 16 18 20 22 25 28 28 30 32 35 37 37 35 34 33 32 30 29 27 25 23 23 21 20 18
19 20 18 16 14 12 10 9 8 9 11 13 17 16 15 15 15 16 19 21 22 23 25 28 32 33 35 37 38 39 39 37 35 34 33 31 30 28 26 24 23 22 21 20
11 9 8 7 6 5 6 9 11 11 12 12 13 14 15 18 20 22 24 25 27 29 30 32 34 37 39 41 41 41 39 37 36 36 34 32 30 28 26 25 24 23 23 23
6 6 6 7 8 10 10 10 11 13 14 15 16 18 20 22 24 27 29 30 30 33 36 38 40 41 42 42 41 40 39 39 39 37 34 31 29 27 26 25 24 24 24 24
8 7 7 8 9 10 11 13 14 15 16 18 19 22 24 25 28 31 34 37 37 40 41 41 42 42 42 41 38 38 39 37 35 32 30 29 28 27 25 23 23 23 23 24
8 8 9 11 12 14 14 16 17 19 21 23 25 28 31 33 36 38 39 41 42 43 43 43 42 41 40 39 38 38 36 35 33 30 27 27 29 27 25 24 23 25 24 23
9 10 12 14 15 16 17 19 21 23 25 28 32 35 38 41 44 46 47 46 47 47 46 44 42 39 39 34 40 37 34 33 31 30 28 28 29 29 28 26 24 25 24 24
11 13 15 15 16 18 20 22 24 27 31 35 38 41 44 46 46 46 47 48 48 48 46 44 41 38 36 32 35 35 31 28 31 31 28 28 28 29 29 29 25 24 25 26
15 16 17 18 20 21 24 27 31 35 38 41 44 45 46 48 50 51 51 50 48 47 45 43 41 38 34 29 32 34 30 30 31 31 29 28 28 28 30 29 24 25 25 25
17 18 19 20 22 26 30 34 38 41 45 47 48 50 51 50 48 47 46 45 44 42 41 38 35 33 32 29 30 31 29 30 30 29 29 29 28 28 29 29 25 24 25 26
19 20 21 24 28 32 36 39 43 45 47 49 50 48 47 45 43 43 43 42 41 40 38 34 31 28 27 30 30 30 28 29 29 27 27 27 28 28 28 28 25 25 26 27

GFSNGP_700_spd_027.txt.gz
Wind_Speed
18 11 11 11 11 14 20 22 18 17 15 15 15 16 14 16 16 16 22 24 28 32 35 37 39 41 42 42 40 41 42 44 30 32 33 33 33 36 38 40 41 40 40 40
12 12 15 14 16 17 19 20 22 23 23 20 19 15 15 14 16 17 19 22 24 29 33 36 40 42 42 40 40 43 44 35 31 32 31 31 36 37 39 41 40 39 38 37
8 8 8 14 22 22 21 21 20 22 22 17 17 15 14 13 16 17 19 21 23 25 29 34 38 41 39 39 41 41 46 32 34 33 29 33 35 38 39 39 39 38 36 35
5 4 1 9 13 13 13 15 17 19 19 19 18 18 20 19 16 15 16 17 23 27 30 34 38 40 37 38 44 45 35 33 30 29 31 32 36 38 39 39 38 35 35 34
5 8 11 13 11 12 8 7 7 7 9 10 12 16 18 14 15 16 20 26 27 27 30 32 37 38 37 41 43 46 33 26 27 30 30 32 37 38 40 37 35 34 32 33
8 4 4 3 8 9 9 8 2 6 8 13 19 15 15 17 23 27 28 27 24 23 25 30 32 36 38 44 47 46 39 27 28 30 29 34 37 38 35 34 34 35 32 30
12 8 7 10 13 10 6 4 9 15 25 23 15 13 20 25 31 30 30 29 29 29 29 30 35 38 42 46 43 36 22 24 29 25 32 35 36 34 34 34 34 32 31 28
9 6 7 7 4 3 7 15 20 23 22 24 23 25 29 30 30 32 31 33 32 30 33 39 42 49 51 44 35 18 21 23 23 29 33 36 36 34 33 34 33 31 31 28
8 3 10 9 16 15 21 23 23 24 23 24 26 27 27 26 32 31 30 36 37 38 42 46 45 46 38 40 30 21 16 21 26 31 35 35 36 35 33 31 30 30 29 28
13 6 8 11 19 18 17 20 23 25 26 27 28 29 29 25 35 33 35 38 39 40 39 45 44 46 41 27 18 14 18 23 28 33 35 35 34 35 35 31 30 29 28 26
15 16 12 9 9 17 24 25 26 25 25 28 28 29 30 30 36 37 37 39 37 37 39 41 39 30 22 17 15 16 21 28 33 35 35 33 33 34 34 31 28 28 28 28
10 15 19 20 25 29 28 27 27 27 27 32 31 31 32 33 34 33 33 34 36 38 41 31 18 19 19 18 18 21 25 29 33 33 34 33 33 33 32 30 28 28 27 26
20 22 23 25 29 27 27 27 29 32 33 32 31 29 30 29 30 30 33 34 30 25 21 21 20 23 22 19 20 24 29 31 33 34 35 34 34 35 33 31 31 28 26 24
24 24 24 25 26 27 29 32 30 29 28 29 29 28 24 23 23 22 18 15 15 17 19 19 15 14 17 22 26 29 31 33 34 35 36 35 34 34 34 33 31 29 27 23
28 26 25 26 27 29 26 25 26 28 28 24 21 19 17 15 12 12 19 22 20 16 16 17 19 22 26 27 29 32 34 35 36 36 36 37 36 35 34 32 30 29 27 24
28 28 28 27 23 23 24 25 22 19 17 16 14 13 13 13 15 18 15 15 16 18 21 23 24 26 29 31 33 35 38 39 41 42 40 39 36 35 34 33 31 28 27 24
27 23 21 21 21 19 15 13 13 13 12 13 13 13 12 12 13 15 18 19 20 21 23 26 29 31 34 35 36 38 41 42 42 42 42 41 39 36 34 33 31 29 27 24
16 16 15 13 10 9 10 10 10 10 12 13 14 13 14 16 17 19 22 23 25 27 27 31 33 35 37 38 40 41 42 45 43 42 41 38 38 37 35 33 31 29 27 26
9 7 6 7 9 9 9 10 12 13 13 13 14 15 17 20 22 24 26 28 30 33 34 37 40 42 42 42 44 45 46 45 40 40 39 39 38 35 33 32 30 28 26 26
6 6 7 8 10 11 12 13 14 15 15 16 18 19 20 23 26 28 31 34 35 40 42 43 45 46 46 46 41 38 39 34 35 38 39 37 35 30 26 28 29 27 25 24
7 8 10 12 13 14 15 16 16 16 17 19 21 24 26 28 31 34 37 40 42 46 48 49 49 49 48 46 42 39 41 44 41 40 42 32 28 26 26 28 29 28 26 25
10 13 14 15 15 16 16 17 18 19 21 23 25 28 31 35 38 41 44 47 49 50 51 51 51 50 48 46 43 40 38 42 40 41 41 31 29 28 30 33 33 32 31 29
14 15 15 14 16 17 18 19 21 22 24 27 30 34 37 41 44 47 50 50 51 52 52 50 49 48 46 43 42 39 37 34 34 37 35 32 32 32 32 31 31 31 32 32
15 14 15 17 18 19 20 21 23 26 28 33 36 40 43 46 47 48 48 48 47 46 45 45 45 43 40 38 32 31 29 28 30 29 31 33 33 31 31 30 30 29 30 31
15 17 18 19 20 21 22 23 26 31 35 38 41 45 47 48 48 47 46 44 44 44 44 45 44 42 40 37 33 31 30 34 33 30 28 31 31 29 29 30 29 29 29 30
19 20 20 20 22 23 25 28 33 37 40 43 46 48 48 47 45 43 42 42 44 45 44 43 42 39 36 33 30 28 29 31 30 30 31 30 28 28 27 27 28 29 28 28
21 22 23 24 24 27 30 35 39 41 44 46 47 47 45 43 41 41 41 42 43 42 41 40 37 35 32 29 27 27 27 26 26 25 26 26 26 26 27 27 28 29 28 28

GFSNGP_700_spd_030.txt.gz
Wind_Speed
18 19 7 9 9 10 16 19 20 18 15 13 14 13 10 10 9 15 14 19 23 26 32 35 37 42 39 40 44 45 40 39 39 47 46 35 31 30 31 32 33 37 37 37
13 12 13 15 15 16 17 17 19 21 21 16 16 17 19 15 13 14 17 16 23 28 30 36 36 39 39 42 46 45 39 39 45 40 42 35 30 30 30 30 32 37 37 36
7 9 10 14 19 18 21 19 18 20 19 16 17 18 13 13 11 15 19 18 20 23 29 28 31 35 37 43 48 47 42 42 42 51 34 30 27 30 31 31 33 35 36 34
6 6 1 11 8 11 9 10 11 13 11 8 12 12 17 21 14 14 13 15 18 19 23 26 30 32 37 42 48 46 43 43 38 31 37 29 28 32 26 30 34 34 34 32
6 9 11 15 8 6 4 4 3 3 5 5 11 12 13 11 13 16 19 21 24 27 24 25 27 30 36 41 42 42 46 44 39 34 23 24 27 24 28 31 34 33 33 32
8 4 4 3 8 8 4 4 3 9 8 9 16 15 11 13 15 19 23 31 27 26 25 24 28 32 34 36 40 45 50 50 38 21 18 27 23 24 29 32 32 33 33 29
12 7 6 7 11 13 4 4 8 10 15 24 18 12 18 23 26 27 27 27 26 26 21 23 30 38 40 41 45 50 47 39 31 21 21 20 23 28 31 32 31 32 32 28
12 6 8 10 7 3 9 10 14 22 21 22 21 22 22 22 17 26 29 24 29 33 32 33 39 43 45 49 51 52 41 31 24 18 18 23 26 30 33 32 31 31 31 30
9 1 7 7 11 12 15 18 20 19 19 20 21 22 21 22 20 25 31 32 36 37 37 37 37 39 42 50 43 38 32 26 23 23 22 26 30 34 35 35 29 30 30 30
12 8 5 7 12 11 8 17 18 21 24 23 24 25 23 23 25 28 35 37 36 36 33 33 35 39 41 37 30 26 23 23 25 23 24 28 33 33 33 35 34 32 31 30
10 12 14 10 15 18 21 22 26 25 25 26 25 26 30 33 34 34 33 32 31 32 34 32 32 28 21 21 21 24 19 19 22 25 29 33 33 34 33 32 34 33 29 29
13 17 18 23 27 25 27 28 28 25 28 26 30 31 29 28 28 28 29 28 28 30 28 23 19 19 22 22 16 17 20 23 27 31 32 34 35 35 34 32 31 31 29 28
21 21 22 27 28 30 29 27 27 28 31 30 27 27 28 28 26 24 22 20 18 17 16 17 18 16 15 17 20 23 26 29 31 33 34 35 36 37 38 36 34 33 32 29
22 22 27 27 31 29 26 28 30 30 28 27 28 27 23 18 17 17 16 16 17 18 15 15 15 18 21 24 25 28 30 32 34 36 37 37 38 39 38 37 36 32 30 30
26 26 30 30 26 27 29 29 25 25 25 21 18 17 16 16 16 15 15 15 15 16 19 21 22 23 27 30 32 32 34 36 38 40 41 40 41 41 40 37 35 34 32 29
28 26 25 26 27 26 24 23 21 18 15 15 14 13 13 13 14 14 15 16 18 20 22 24 27 29 31 32 34 36 37 39 39 40 42 44 45 43 41 36 35 32 32 30
26 24 25 25 22 20 20 16 13 13 12 11 12 14 15 16 16 17 18 20 22 24 26 29 32 34 36 38 40 42 43 37 38 43 44 45 41 38 33 34 36 35 32 29
25 22 19 17 15 12 10 11 11 11 12 13 15 15 15 17 18 19 21 23 26 28 32 35 37 40 43 44 45 46 47 47 45 40 37 37 37 37 35 36 32 32 30 28
16 14 13 10 10 10 10 11 12 13 14 14 16 17 18 20 22 24 27 29 32 36 39 42 44 47 48 49 49 50 50 49 46 42 39 40 39 36 37 37 32 27 27 28
12 11 10 10 10 10 11 12 13 15 16 17 18 19 21 23 26 28 31 34 39 42 45 48 50 51 52 53 52 51 50 49 46 44 38 43 35 30 34 33 30 26 27 27
11 9 9 9 10 11 13 15 17 17 18 20 21 23 25 28 31 34 37 41 45 47 49 50 51 53 51 48 47 46 44 43 40 39 35 32 34 36 38 36 32 28 29 33
9 10 10 12 13 15 16 17 19 20 22 24 25 27 29 32 35 38 43 46 48 49 49 50 51 48 46 46 46 45 43 39 36 32 31 32 36 36 35 30 29 30 30 30
11 12 14 15 16 17 19 20 21 22 24 27 28 30 34 37 41 44 47 48 49 48 47 47 46 46 46 46 45 44 40 37 33 29 24 27 30 31 31 32 30 29 27 28
14 15 16 16 18 20 21 21 24 26 26 29 32 36 39 42 44 46 47 46 46 44 44 44 44 44 45 44 44 41 38 35 31 29 29 30 32 34 35 32 29 28 26 26
16 16 17 19 21 22 22 23 25 27 29 33 37 40 43 45 47 46 46 45 43 42 42 43 43 42 41 41 40 37 34 31 27 27 28 32 31 30 28 29 27 27 25 24
18 19 20 22 23 23 24 26 28 31 34 38 41 44 46 46 46 44 43 42 41 40 40 41 40 38 37 37 36 33 30 28 26 25 24 24 25 25 24 25 25 25 25 25
21 22 22 23 24 26 27 29 32 35 39 42 44 46 47 45 44 42 40 39 39 38 38 37 36 35 34 33 32 30 28 27 26 24 23 22 21 21 21 21 22 23 24 25